Location: Clatteringshaws Loch
(55.0508°N, 4.2860°W)
Time: 19:50:17
(UTC+01:00)

ALOS - Visible Passes

Search period start: 02 September 2014 00:00
Search period end: 12 September 2014 00:00
Orbit: 689 x 689 km, 98.0° (Epoch: 01 September)

Date Brightness Start Highest point End Pass type
(mag) Time Alt. Az. Time Alt. Az. Time Alt. Az.
02 Sep 3.0 20:53:05 10° SE 20:57:23 37° ENE 21:01:43 10° N visible
02 Sep 3.5 22:31:03 13° SSW 22:34:54 39° W 22:39:19 10° NNW visible
03 Sep 2.3 21:31:38 13° SSE 21:35:52 73° ENE 21:40:34 10° NNW visible
03 Sep 4.5 23:10:29 10° SW 23:13:53 20° W 23:17:19 10° NW visible
04 Sep 2.8 22:10:49 15° S 22:14:32 56° W 22:19:11 10° NNW visible
05 Sep 2.6 21:11:23 12° SE 21:15:39 51° ENE 21:20:13 10° N visible
05 Sep 4.0 22:50:00 13° SSW 22:53:25 28° W 22:57:28 10° NNW visible
06 Sep 2.3 21:50:34 17° SSE 21:54:13 81° WSW 21:58:57 10° NNW visible
06 Sep 4.8 23:30:02 10° WSW 23:32:30 14° W 23:35:00 10° NW visible
07 Sep 3.0 20:51:13 10° SE 20:55:30 36° ENE 20:59:48 10° N visible
07 Sep 3.4 22:29:46 17° SSW 22:32:59 40° W 22:37:25 10° NNW visible
08 Sep 2.3 21:30:20 17° SSE 21:33:58 71° ENE 21:38:39 10° NNW visible
08 Sep 4.5 23:08:57 12° SW 23:11:58 20° W 23:15:27 10° NW visible
09 Sep 3.4 20:31:29 10° ESE 20:35:23 27° ENE 20:39:18 10° N visible
09 Sep 2.8 22:09:31 20° S 22:12:37 58° W 22:17:16 10° NNW visible
10 Sep 2.6 21:10:06 15° SE 21:13:45 50° ENE 21:18:17 10° N visible
10 Sep 3.9 22:48:43 17° SW 22:51:29 29° W 22:55:34 10° NNW visible
11 Sep 2.3 21:49:17 22° SSE 21:52:18 83° WSW 21:57:02 10° NNW visible
11 Sep 4.8 23:27:59 10° WSW 23:30:34 15° W 23:33:09 10° NW visible
